Weather History for Lamoni, IA

Change the Weather History Date:

Sunday, July 15, 2012

  Actual Average Record
Temperature  
Mean Temperature 83 °F 75 °F  
Max Temperature 96 °F 85 °F 103 °F (1980)
Min Temperature 70 °F 65 °F 53 °F (1967)
Degree Days  
Heating Degree Days 0 0  
Month to date heating degree days 0 0  
Since 1 June heating degree days 10 19  
Since 1 July heating degree days 0 0  
Cooling Degree Days 18 10  
Month to date cooling degree days 248 148  
Year to date cooling degree days 676 395  
Since 1 June cooling degree days 519 341  
Growing Degree Days 32 (Base 50)    
Moisture  
Dew Point 63 °F    
Average Humidity 57    
Maximum Humidity 84    
Minimum Humidity 29    
Precipitation  
Precipitation 0.00 in 0.18 in 1.66 in (1981)
Month to date precipitation 0.08 2.36  
Year to date precipitation 15.92  
Sea Level Pressure  
Sea Level Pressure 30.00 in    
Wind  
Wind Speed 7 mph (South)    
Max Wind Speed 37 mph    
Max Gust Speed 79 mph    
Visibility 10 miles    
Events      
T = Trace of Precipitation, MM = Missing Value Source: NWS Daily Summary

Daily Weather History Graph

Daily Weather History Graph

Search for Another Location

Airport:

Trip Planner

Search our weather history database for the weather conditions in past years. The results will help you decide how hot, cold, wet, or windy it might be!

Date:

Astronomy

Jul. 15, 2012 Rise Set
Actual Time 5:57 AM CDT 8:44 PM CDT
Civil Twilight 5:25 AM CDT 9:17 PM CDT
Nautical Twilight 4:45 AM CDT 9:57 PM CDT
Astronomical Twilight 3:58 AM CDT 10:43 PM CDT
Moon 2:55 AM CDT (7/15) 6:02 PM CDT (7/15)
Length of Visible Light 15h 51m
Length of Day
14h 47m
Waning Crescent, 11% of the Moon is Illuminated
Jul 15
Waning Crescent
Jul 18
New
Jul 26
First Quarter
Aug 1
Full
Aug 9
Last Quarter

Hourly Weather History & Observations

Time (CDT) Temp. Heat Index Dew Point Humidity Pressure Visibility Wind Dir Wind Speed Gust Speed Precip Events Conditions
12:53 AM 77.0 °F - 64.9 °F 66% 30.01 in 10.0 mi Calm Calm - N/A   Overcast
1:53 AM 77.0 °F - 64.0 °F 64% 30.00 in 10.0 mi South 5.8 mph - N/A   Partly Cloudy
2:53 AM 75.0 °F - 64.0 °F 69% 30.00 in 10.0 mi South 4.6 mph - N/A   Clear
3:53 AM 73.0 °F - 64.0 °F 73% 30.00 in 10.0 mi SSW 5.8 mph - N/A   Clear
4:53 AM 71.1 °F - 64.0 °F 78% 30.00 in 10.0 mi SSW 6.9 mph - N/A   Clear
5:42 AM 69.8 °F - 64.4 °F 83% 30.03 in 10.0 mi North - - 0.01 in   Clear
5:53 AM 70.0 °F - 64.0 °F 81% 30.01 in 10.0 mi North - - 0.01 in   Clear
6:53 AM 71.1 °F - 64.0 °F 78% 30.03 in 10.0 mi North - - N/A   Clear
7:53 AM 75.0 °F - 64.9 °F 71% 30.04 in 10.0 mi SSW 3.5 mph - N/A   Clear
8:53 AM 81.0 °F 82.5 °F 64.0 °F 56% 30.05 in 10.0 mi SSW 6.9 mph - N/A   Clear
9:53 AM 84.0 °F 85.8 °F 64.9 °F 53% 30.05 in 10.0 mi Variable 4.6 mph - N/A   Clear
10:53 AM 89.1 °F 91.0 °F 64.9 °F 45% 30.04 in 10.0 mi WSW 4.6 mph - N/A   Clear
11:53 AM 91.0 °F 92.6 °F 64.0 °F 41% 30.03 in 10.0 mi Variable 4.6 mph - N/A   Clear
12:53 PM 93.0 °F 93.0 °F 61.0 °F 34% 30.02 in 10.0 mi South 12.7 mph 17.3 mph N/A   Clear
1:53 PM 93.9 °F 93.2 °F 59.0 °F 31% 30.00 in 10.0 mi WSW 5.8 mph - N/A   Partly Cloudy
2:53 PM 95.0 °F 95.2 °F 61.0 °F 32% 29.99 in 10.0 mi South 9.2 mph - N/A   Partly Cloudy
3:53 PM 96.1 °F 95.6 °F 59.0 °F 29% 29.97 in 10.0 mi Variable 5.8 mph 16.1 mph N/A   Scattered Clouds
4:53 PM 95.0 °F 94.8 °F 60.1 °F 31% 29.95 in 10.0 mi SSE 11.5 mph 18.4 mph N/A   Partly Cloudy
5:53 PM 93.0 °F 92.7 °F 60.1 °F 33% 29.94 in 10.0 mi South 11.5 mph - N/A   Clear
6:53 PM 91.9 °F 91.5 °F 60.1 °F 34% 29.94 in 10.0 mi SSE 11.5 mph - N/A   Clear
8:53 PM 84.9 °F 85.9 °F 63.0 °F 48% 29.96 in 10.0 mi SSE 6.9 mph - N/A   Clear
9:53 PM 82.9 °F 84.0 °F 63.0 °F 51% 29.97 in 10.0 mi SSE 5.8 mph - 0.01 in   Clear
10:53 PM 81.0 °F 82.5 °F 64.0 °F 56% 29.98 in 10.0 mi South 6.9 mph - 0.01 in   Clear
11:53 PM 78.1 °F - 64.0 °F 62% 29.99 in 10.0 mi South 5.8 mph - N/A   Unknown